• In Hungary
  • List of Countries
  • For 7 days
  • Water Temperature
  • Satellite Maps
  • Weather Map
  • News
  • Weather Widgets
  • user-avatar
    Login

    Hourly Weather Wlora

    Today, 24 September, Sunday

    Time Temperature Precipitation Wind Pressure Humidity
    00:00 +19°C° 0 mm 1 mps 765 mmHg 64%
    01:00 +19°C° 0 mm 1 mps 764 mmHg 64%
    02:00 +19°C° 0 mm 1 mps 764 mmHg 65%
    03:00 +19°C° 0 mm 1 mps 764 mmHg 65%
    04:00 +18°C° 0 mm 1 mps 764 mmHg 65%
    05:00 +19°C° 0 mm 1 mps 764 mmHg 63%
    06:00 +19°C° 0 mm 2 mps 764 mmHg 61%
    07:00 +20°C° 0 mm 2 mps 764 mmHg 58%
    08:00 +21°C° 0 mm 2 mps 764 mmHg 52%
    09:00 +24°C° 0 mm 2 mps 764 mmHg 47%
    10:00 +26°C° 0 mm 2 mps 764 mmHg 41%
    11:00 +26°C° 0 mm 3 mps 764 mmHg 41%
    12:00 +27°C° 0 mm 3 mps 763 mmHg 41%
    13:00 +27°C° 0 mm 3 mps 763 mmHg 41%
    14:00 +26°C° 0.3 mm 3 mps 763 mmHg 48%
    15:00 +25°C° 0.3 mm 3 mps 763 mmHg 54%
    16:00 +22°C° 0.3 mm 3 mps 762 mmHg 61%
    17:00 +22°C° 0.3 mm 4 mps 762 mmHg 65%
    18:00 +21°C° 0.3 mm 4 mps 763 mmHg 70%
    19:00 +20°C° 0.3 mm 5 mps 763 mmHg 74%
    20:00 +20°C° 0 mm 5 mps 763 mmHg 74%
    21:00 +20°C° 0 mm 5 mps 763 mmHg 73%
    22:00 +20°C° 0 mm 5 mps 763 mmHg 73%
    23:00 +20°C° 0.1 mm 5 mps 763 mmHg 73%

    Tomorrow, 25 September, Monday

    Time Temperature Precipitation Wind Pressure Humidity
    00:00 +20°C° 0.1 mm 5 mps 762 mmHg 73%
    01:00 +20°C° 0.1 mm 4 mps 762 mmHg 73%
    02:00 +20°C° 0.2 mm 4 mps 762 mmHg 73%
    03:00 +20°C° 0.2 mm 4 mps 762 mmHg 74%
    04:00 +19°C° 0.2 mm 4 mps 761 mmHg 74%
    05:00 +20°C° 0.5 mm 4 mps 761 mmHg 72%
    06:00 +20°C° 0.5 mm 4 mps 761 mmHg 70%
    07:00 +20°C° 0.5 mm 4 mps 762 mmHg 68%
    08:00 +21°C° 0.6 mm 3 mps 762 mmHg 63%
    09:00 +22°C° 0.6 mm 3 mps 762 mmHg 57%
    10:00 +24°C° 0.6 mm 3 mps 762 mmHg 51%
    11:00 +25°C° 0.2 mm 3 mps 762 mmHg 51%
    12:00 +25°C° 0.2 mm 3 mps 762 mmHg 51%
    13:00 +26°C° 0.2 mm 4 mps 761 mmHg 51%
    14:00 +25°C° 0.3 mm 3 mps 761 mmHg 54%
    15:00 +25°C° 0.3 mm 3 mps 761 mmHg 57%
    16:00 +24°C° 0.3 mm 3 mps 761 mmHg 60%
    17:00 +23°C° 0.2 mm 2 mps 761 mmHg 64%
    18:00 +21°C° 0.2 mm 2 mps 762 mmHg 69%
    19:00 +20°C° 0.2 mm 2 mps 762 mmHg 73%
    20:00 +20°C° 0 mm 2 mps 762 mmHg 73%
    21:00 +20°C° 0 mm 2 mps 762 mmHg 73%
    22:00 +19°C° 0 mm 2 mps 762 mmHg 74%
    23:00 +19°C° 0 mm 2 mps 762 mmHg 74%

    Day after tomorrow, 26 September, Tuesday

    Time Temperature Precipitation Wind Pressure Humidity
    00:00 +19°C° 0 mm 2 mps 762 mmHg 75%
    01:00 +19°C° 0 mm 2 mps 762 mmHg 75%
    02:00 +18°C° 0 mm 2 mps 762 mmHg 75%
    03:00 +18°C° 0 mm 2 mps 762 mmHg 75%
    04:00 +18°C° 0 mm 2 mps 762 mmHg 75%
    05:00 +19°C° 0 mm 2 mps 762 mmHg 73%
    06:00 +19°C° 0 mm 2 mps 762 mmHg 70%
    07:00 +20°C° 0 mm 2 mps 762 mmHg 68%
    08:00 +21°C° 0 mm 2 mps 762 mmHg 61%
    09:00 +24°C° 0 mm 2 mps 763 mmHg 53%
    10:00 +26°C° 0 mm 1 mps 763 mmHg 46%
    11:00 +26°C° 0 mm 2 mps 763 mmHg 45%
    12:00 +27°C° 0 mm 2 mps 762 mmHg 45%
    13:00 +27°C° 0 mm 3 mps 762 mmHg 44%
    14:00 +27°C° 0 mm 3 mps 762 mmHg 47%
    15:00 +26°C° 0 mm 3 mps 762 mmHg 50%
    16:00 +25°C° 0 mm 3 mps 762 mmHg 53%
    17:00 +24°C° 0 mm 3 mps 762 mmHg 58%
    18:00 +22°C° 0 mm 3 mps 763 mmHg 63%
    19:00 +21°C° 0 mm 3 mps 763 mmHg 68%
    20:00 +21°C° 0 mm 3 mps 763 mmHg 68%
    21:00 +20°C° 0 mm 2 mps 763 mmHg 69%
    22:00 +20°C° 0 mm 2 mps 764 mmHg 69%
    23:00 +20°C° 0 mm 2 mps 764 mmHg 69%

    27 September, Wednesday

    Time Temperature Precipitation Wind Pressure Humidity
    00:00 +19°C° 0 mm 2 mps 764 mmHg 69%
    01:00 +19°C° 0 mm 2 mps 764 mmHg 69%
    02:00 +19°C° 0 mm 2 mps 764 mmHg 70%
    03:00 +19°C° 0 mm 2 mps 764 mmHg 70%
    04:00 +19°C° 0 mm 2 mps 764 mmHg 70%
    05:00 +19°C° 0 mm 2 mps 764 mmHg 68%
    06:00 +20°C° 0 mm 2 mps 764 mmHg 66%
    07:00 +20°C° 0 mm 2 mps 764 mmHg 64%
    08:00 +23°C° 0 mm 2 mps 764 mmHg 58%
    09:00 +25°C° 0 mm 2 mps 765 mmHg 52%
    10:00 +26°C° 0 mm 1 mps 765 mmHg 47%
    11:00 +27°C° 0 mm 2 mps 764 mmHg 46%
    12:00 +27°C° 0 mm 2 mps 764 mmHg 45%
    13:00 +28°C° 0 mm 2 mps 764 mmHg 44%
    14:00 +27°C° 0 mm 2 mps 764 mmHg 47%
    15:00 +26°C° 0 mm 2 mps 764 mmHg 50%
    16:00 +26°C° 0 mm 2 mps 764 mmHg 53%
    17:00 +25°C° 0 mm 2 mps 764 mmHg 58%
    18:00 +23°C° 0 mm 2 mps 764 mmHg 63%
    19:00 +21°C° 0 mm 2 mps 765 mmHg 69%
    20:00 +21°C° 0 mm 2 mps 765 mmHg 69%
    21:00 +21°C° 0 mm 2 mps 765 mmHg 69%
    22:00 +20°C° 0 mm 2 mps 765 mmHg 69%
    23:00 +20°C° 0 mm 2 mps 765 mmHg 69%

    28 September, Thursday

    Time Temperature Precipitation Wind Pressure Humidity
    00:00 +20°C° 0 mm 2 mps 765 mmHg 69%
    01:00 +20°C° 0 mm 2 mps 765 mmHg 69%
    02:00 +20°C° 0 mm 2 mps 764 mmHg 69%
    03:00 +19°C° 0 mm 2 mps 764 mmHg 69%
    04:00 +19°C° 0 mm 3 mps 764 mmHg 69%
    05:00 +20°C° 0.1 mm 3 mps 764 mmHg 67%
    06:00 +20°C° 0.1 mm 3 mps 764 mmHg 65%
    07:00 +21°C° 0.1 mm 3 mps 765 mmHg 63%
    08:00 +23°C° 0 mm 2 mps 765 mmHg 58%
    09:00 +25°C° 0 mm 2 mps 765 mmHg 53%
    10:00 +26°C° 0 mm 2 mps 765 mmHg 47%
    11:00 +27°C° 0 mm 2 mps 765 mmHg 46%
    12:00 +27°C° 0 mm 2 mps 764 mmHg 45%
    13:00 +28°C° 0 mm 2 mps 764 mmHg 44%
    14:00 +27°C° 0.1 mm 2 mps 764 mmHg 48%
    15:00 +26°C° 0.1 mm 2 mps 764 mmHg 52%
    16:00 +25°C° 0.1 mm 2 mps 764 mmHg 57%
    17:00 +24°C° 0.1 mm 3 mps 764 mmHg 60%
    18:00 +24°C° 0.1 mm 3 mps 764 mmHg 64%
    19:00 +22°C° 0.1 mm 3 mps 764 mmHg 68%
    20:00 +23°C° 0.1 mm 2 mps 765 mmHg 69%
    21:00 +21°C° 0.1 mm 2 mps 765 mmHg 69%
    22:00 +21°C° 0.1 mm 2 mps 765 mmHg 70%
    23:00 +20°C° 0.1 mm 2 mps 765 mmHg 71%

    29 September, Friday

    Time Temperature Precipitation Wind Pressure Humidity
    00:00 +20°C° 0.1 mm 2 mps 765 mmHg 72%
    01:00 +19°C° 0.1 mm 2 mps 764 mmHg 73%
    02:00 +19°C° 0 mm 2 mps 764 mmHg 74%
    03:00 +19°C° 0 mm 2 mps 764 mmHg 74%
    04:00 +18°C° 0 mm 2 mps 764 mmHg 75%
    05:00 +19°C° 0 mm 2 mps 764 mmHg 73%
    06:00 +19°C° 0 mm 2 mps 764 mmHg 71%
    07:00 +20°C° 0 mm 2 mps 764 mmHg 69%
    08:00 +21°C° 0 mm 2 mps 764 mmHg 62%
    09:00 +24°C° 0 mm 2 mps 764 mmHg 55%
    10:00 +25°C° 0 mm 2 mps 764 mmHg 48%
    11:00 +26°C° 0.1 mm 2 mps 764 mmHg 47%
    12:00 +26°C° 0.1 mm 2 mps 764 mmHg 45%
    13:00 +27°C° 0.1 mm 2 mps 764 mmHg 44%
    14:00 +26°C° 0.1 mm 2 mps 764 mmHg 47%
    15:00 +26°C° 0.1 mm 2 mps 764 mmHg 50%
    16:00 +25°C° 0.1 mm 2 mps 763 mmHg 54%
    17:00 +24°C° 0.2 mm 2 mps 764 mmHg 57%
    18:00 +23°C° 0.2 mm 2 mps 764 mmHg 61%
    19:00 +21°C° 0.2 mm 2 mps 764 mmHg 64%
    20:00 +20°C° 0.1 mm 2 mps 764 mmHg 65%
    21:00 +20°C° 0.1 mm 3 mps 764 mmHg 66%
    22:00 +19°C° 0.1 mm 3 mps 764 mmHg 67%
    23:00 +19°C° 0.1 mm 3 mps 764 mmHg 68%
    Show more